Weather History for Pituffik, Greenland

Change the Weather History Date:

Sunday, February 16, 2014

  Actual Average Record
Temperature  
Mean Temperature 1 °F -  
Max Temperature 15 °F -4 °F 15 °F (2011)
Min Temperature -13 °F -18 °F -30 °F (2008)
Degree Days  
Heating Degree Days 64    
Moisture  
Dew Point -1 °F    
Average Humidity 72    
Maximum Humidity 85    
Minimum Humidity 52    
Precipitation  
Precipitation 0.01 in 0.01 in - ()
Sea Level Pressure  
Sea Level Pressure 29.54 in    
Wind  
Wind Speed 19 mph ()    
Max Wind Speed 41 mph    
Max Gust Speed 58 mph    
Visibility 3.2 miles    
Events Snow    
Averages and records for this station are not official NWS values.
T = Trace of Precipitation, MM = Missing Value Source: Averaged Metar Reports

Daily Weather History Graph

Daily Weather History Graph

Search for Another Location

Airport:

Trip Planner

Search our weather history database for the weather conditions in past years. The results will help you decide how hot, cold, wet, or windy it might be!

Date:

Astronomy

Feb. 16, 2014 Rise Set
Actual Time 10:37 AM AST 3:02 PM AST
Civil Twilight 8:35 AM AST 5:05 PM AST
Nautical Twilight 6:47 AM AST 6:53 PM AST
Astronomical Twilight 5:02 AM AST 8:39 PM AST
Moon 7:56 PM AST (2/16) 8:29 AM AST (2/16)
Length of Visible Light 8h 29m
Length of Day
4h 24m
Full, 97% of the Moon is Illuminated
Feb 16
Full
Feb 22
Last Quarter
Mar 1
New
Mar 8
First Quarter
Mar 16
Full

Hourly Weather History & Observations

Time (AST) Temp. Windchill Dew Point Humidity Pressure Visibility Wind Dir Wind Speed Gust Speed Precip Events Conditions
12:58 AM -13.5 °F -31.9 °F -23.8 °F 60% 29.30 in 6.2 mi East 9.2 mph - N/A   Clear
1:58 AM -11.6 °F -29.5 °F -21.6 °F 61% 29.29 in 6.2 mi East 9.2 mph - N/A   Clear
2:58 AM -9.8 °F - -20.7 °F 59% 29.29 in 6.2 mi ENE 2.3 mph - N/A   Clear
3:58 AM -5.1 °F -23.5 °F -15.5 °F 61% 29.28 in 6.2 mi East 11.5 mph - N/A   Clear
4:58 AM -3.1 °F - -12.1 °F 65% 29.29 in 6.2 mi Calm Calm - N/A   Partly Cloudy
5:58 AM -2.4 °F -12.7 °F -14.8 °F 56% 29.30 in 6.2 mi SSW 4.6 mph - N/A   Mostly Cloudy
6:24 AM -2.2 °F -19.9 °F -14.8 °F 55% 29.31 in 6.2 mi SSW 11.5 mph 18.4 mph N/A   Scattered Clouds
6:58 AM 15.4 °F 0.4 °F 7.7 °F 71% 29.31 in 6.2 mi SE 15.0 mph - N/A   Scattered Clouds
7:12 AM 14.0 °F -1.4 °F 3.2 °F 62% 29.34 in 6.2 mi East 15.0 mph 24.2 mph N/A   Mostly Cloudy
7:24 AM 12.2 °F -2.5 °F 3.2 °F 67% 29.35 in 6.2 mi East 12.7 mph - N/A   Partly Cloudy
7:36 AM 12.2 °F -2.5 °F 5.0 °F 73% 29.35 in 6.2 mi NNE 12.7 mph 21.9 mph N/A   Scattered Clouds
7:38 AM 12.2 °F -2.5 °F 5.0 °F 73% 29.35 in 6.2 mi NNW 12.7 mph 23.0 mph N/A Snow Light Snow
7:42 AM 12.2 °F -8.6 °F 5.0 °F 73% 29.32 in 5.6 mi NW 27.6 mph 36.8 mph N/A Snow Light Snow
7:43 AM 12.2 °F -7.9 °F 5.0 °F 73% 29.33 in 5.0 mi NW 25.3 mph 36.8 mph N/A Snow Light Snow
7:47 AM 14.0 °F -8.3 °F 5.0 °F 67% 29.30 in 2.5 mi WNW 35.7 mph 57.5 mph N/A Snow Light Snow
7:48 AM 14.0 °F -6.8 °F 5.0 °F 67% 29.31 in - NW 29.9 mph 57.5 mph N/A Snow Light Snow
7:49 AM 14.0 °F -6.2 °F 5.0 °F 67% 29.31 in - NNW 27.6 mph 57.5 mph N/A Snow Light Snow
7:53 AM 14.0 °F -4.3 °F 3.2 °F 62% 29.32 in - North 21.9 mph 57.5 mph N/A Snow Light Snow
7:56 AM 14.0 °F 3.9 °F 3.2 °F 62% 29.33 in 2.5 mi Variable 6.9 mph 57.5 mph N/A Snow Light Snow
7:57 AM 14.0 °F 3.9 °F 3.2 °F 62% 29.33 in - ENE 6.9 mph 35.7 mph N/A Snow Light Snow
7:58 AM 14.0 °F 2.0 °F 3.2 °F 62% 29.31 in - East 9.2 mph 35.7 mph 0.00 in Snow Light Snow
8:10 AM 14.0 °F - 1.4 °F 57% 29.34 in 6.2 mi Calm Calm - N/A   Mostly Cloudy
8:11 AM 14.0 °F 5.1 °F 1.4 °F 57% 29.34 in 6.2 mi Variable 5.8 mph - N/A   Mostly Cloudy
8:14 AM 14.0 °F 2.0 °F 1.4 °F 57% 29.34 in 6.2 mi NNE 9.2 mph - N/A   Mostly Cloudy
8:30 AM 12.2 °F -4.3 °F 3.2 °F 67% 29.36 in 6.2 mi North 16.1 mph - N/A   Mostly Cloudy
8:38 AM 12.2 °F -6.7 °F 1.4 °F 62% 29.35 in 6.2 mi North 21.9 mph 42.6 mph N/A   Mostly Cloudy
8:49 AM 12.2 °F -8.2 °F 1.4 °F 62% 29.36 in 6.2 mi NNE 26.5 mph 40.3 mph N/A   Scattered Clouds
8:58 AM 12.6 °F -4.9 °F 0.3 °F 58% 29.34 in 5.6 mi NE 18.4 mph 35.7 mph 0.00 in   Haze
9:05 AM 10.4 °F -9.1 °F 1.4 °F 67% 29.38 in 5.6 mi NE 21.9 mph 36.8 mph N/A   Haze
9:06 AM 10.4 °F -9.5 °F 1.4 °F 67% 29.38 in 5.6 mi NNE 23.0 mph 36.8 mph N/A   Haze
9:12 AM 10.4 °F -4.8 °F 1.4 °F 67% 29.39 in 3.7 mi NNE 12.7 mph 31.1 mph N/A   Haze
9:24 AM 10.4 °F -3.3 °F 1.4 °F 67% 29.39 in 6.2 mi ENE 10.4 mph - N/A   Mostly Cloudy
9:42 AM 10.4 °F -10.7 °F 1.4 °F 67% 29.38 in 6.2 mi East 26.5 mph 35.7 mph N/A   Scattered Clouds
9:46 AM 10.4 °F -8.2 °F 1.4 °F 67% 29.38 in 5.6 mi ENE 19.6 mph 35.7 mph N/A   Haze
9:56 AM 10.4 °F -9.1 °F 1.4 °F 67% 29.37 in 3.7 mi NE 21.9 mph 51.8 mph N/A   Haze
9:58 AM 10.8 °F -9.4 °F 1.4 °F 66% 29.36 in - ENE 24.2 mph 51.8 mph N/A   Haze
10:21 AM 12.2 °F -8.6 °F 1.4 °F 62% 29.39 in 5.0 mi ENE 27.6 mph 47.2 mph N/A   Haze
10:22 AM 12.2 °F -8.2 °F 1.4 °F 62% 29.38 in 5.6 mi East 26.5 mph 47.2 mph N/A   Haze
10:24 AM 12.2 °F -6.7 °F 1.4 °F 62% 29.39 in 5.0 mi ENE 21.9 mph 47.2 mph N/A   Haze
10:34 AM 12.2 °F -7.5 °F 1.4 °F 62% 29.42 in 3.7 mi East 24.2 mph 51.8 mph N/A   Haze
10:36 AM 12.2 °F -3.7 °F 1.4 °F 62% 29.40 in - NE 15.0 mph 51.8 mph N/A   Haze
10:37 AM 12.2 °F -6.7 °F 1.4 °F 62% 29.40 in - NNE 21.9 mph 51.8 mph N/A   Haze
10:41 AM 12.2 °F -11.0 °F 1.4 °F 62% 29.40 in 2.5 mi NE 36.8 mph 46.0 mph N/A   Haze
10:42 AM 12.2 °F -10.8 °F 1.4 °F 62% 29.40 in - NNE 35.7 mph 46.0 mph N/A   Haze
10:43 AM 12.2 °F -11.3 °F 1.4 °F 62% 29.40 in - NNE 38.0 mph 46.0 mph N/A   Haze
10:50 AM 12.2 °F -9.9 °F 1.4 °F 62% 29.42 in 2.5 mi ENE 32.2 mph 46.0 mph N/A   Haze
10:52 AM 10.4 °F -11.7 °F 1.4 °F 67% 29.43 in - ENE 29.9 mph 44.9 mph N/A   Haze
10:53 AM 10.4 °F -11.4 °F 1.4 °F 67% 29.43 in 2.5 mi ENE 28.8 mph 44.9 mph N/A   Haze
10:58 AM 10.4 °F -11.4 °F 1.4 °F 67% 29.41 in 2.5 mi ENE 28.8 mph 38.0 mph N/A   Haze
11:01 AM 10.4 °F -10.7 °F 1.4 °F 67% 29.44 in - ENE 26.5 mph 38.0 mph N/A   Haze
11:07 AM 10.4 °F -12.0 °F 1.4 °F 67% 29.44 in - East 31.1 mph 38.0 mph N/A   Haze
11:09 AM 8.6 °F -14.1 °F 1.4 °F 73% 29.44 in 1.7 mi ENE 29.9 mph 38.0 mph N/A   Haze
11:15 AM 10.4 °F -10.7 °F 3.2 °F 73% 29.45 in - ENE 26.5 mph 38.0 mph N/A   Haze
11:16 AM 10.4 °F -10.7 °F 1.4 °F 67% 29.45 in 2.5 mi ENE 26.5 mph 38.0 mph N/A   Haze
11:17 AM 10.4 °F -11.0 °F 1.4 °F 67% 29.45 in 3.7 mi ENE 27.6 mph 38.0 mph N/A   Haze
11:26 AM 8.6 °F -11.0 °F 1.4 °F 73% 29.46 in 2.5 mi East 20.7 mph - N/A   Haze
11:27 AM 8.6 °F -11.0 °F 1.4 °F 73% 29.46 in - East 20.7 mph - N/A   Haze
11:28 AM 8.6 °F -11.4 °F 1.4 °F 73% 29.46 in 1.5 mi East 21.9 mph - N/A   Haze
11:29 AM 8.6 °F -12.3 °F 1.4 °F 73% 29.47 in 1.0 mi East 24.2 mph - N/A   Haze
11:30 AM 8.6 °F -12.3 °F 1.4 °F 73% 29.47 in 0.7 mi East 24.2 mph - N/A   Haze
11:31 AM 8.6 °F -12.7 °F 1.4 °F 73% 29.46 in 0.5 mi East 25.3 mph - N/A   Haze
11:40 AM 6.8 °F -15.1 °F 3.2 °F 85% 29.47 in 0.7 mi East 25.3 mph 29.9 mph N/A   Haze
11:45 AM 6.8 °F -15.1 °F 1.4 °F 79% 29.48 in 0.5 mi East 25.3 mph 32.2 mph N/A   Haze
11:47 AM 6.8 °F -15.1 °F 1.4 °F 79% 29.48 in 0.5 mi East 25.3 mph 32.2 mph N/A   Haze
11:52 AM 6.8 °F -0.1 °F 1.4 °F 79% 29.49 in 0.7 mi Variable 3.5 mph 32.2 mph N/A   Haze
11:55 AM 6.8 °F -6.9 °F 1.4 °F 79% 29.49 in 1.0 mi SE 9.2 mph 32.2 mph N/A   Haze
11:56 AM 6.8 °F -9.3 °F 1.4 °F 79% 29.49 in 1.5 mi SE 12.7 mph 32.2 mph N/A   Haze
11:57 AM 6.8 °F -10.7 °F 3.2 °F 85% 29.49 in 2.5 mi SE 15.0 mph - N/A   Haze
11:58 AM 6.6 °F -11.5 °F 2.1 °F 82% 29.47 in 3.7 mi SE 16.1 mph - N/A   Haze
11:59 AM 6.8 °F -11.3 °F 3.2 °F 85% 29.49 in 5.0 mi SE 16.1 mph - N/A   Haze
12:06 PM 6.8 °F -13.8 °F 1.4 °F 79% 29.49 in 2.5 mi SE 21.9 mph 27.6 mph N/A   Haze
12:07 PM 6.8 °F -14.7 °F 1.4 °F 79% 29.49 in - SE 24.2 mph 33.4 mph N/A   Haze
12:08 PM 6.8 °F -13.4 °F 1.4 °F 79% 29.50 in 1.5 mi SSE 20.7 mph 33.4 mph N/A   Haze
12:13 PM 6.8 °F -13.8 °F 1.4 °F 79% 29.51 in 1.0 mi SE 21.9 mph 33.4 mph N/A   Haze
12:15 PM 6.8 °F -14.3 °F 1.4 °F 79% 29.51 in 0.7 mi SE 23.0 mph 33.4 mph N/A   Haze
12:19 PM 6.8 °F -13.8 °F 1.4 °F 79% 29.52 in 0.5 mi SE 21.9 mph 27.6 mph N/A   Haze
12:26 PM 6.8 °F -11.8 °F 1.4 °F 79% 29.54 in 0.7 mi SE 17.3 mph - N/A   Haze
12:33 PM 6.8 °F -10.7 °F 1.4 °F 79% 29.55 in 0.7 mi East 15.0 mph 24.2 mph N/A   Haze
12:34 PM 5.0 °F -10.8 °F 1.4 °F 85% 29.56 in 1.0 mi NE 11.5 mph 24.2 mph N/A   Haze
12:38 PM 6.8 °F -4.8 °F 1.4 °F 79% 29.56 in 1.2 mi NNE 6.9 mph 24.2 mph N/A   Haze
12:39 PM 6.8 °F -5.9 °F 1.4 °F 79% 29.56 in 1.5 mi NE 8.1 mph 24.2 mph N/A   Haze
12:40 PM 6.8 °F -6.9 °F 1.4 °F 79% 29.57 in 1.5 mi NE 9.2 mph - N/A   Haze
12:41 PM 6.8 °F -7.8 °F 1.4 °F 79% 29.57 in - NE 10.4 mph - N/A   Haze
12:42 PM 6.8 °F -7.8 °F 1.4 °F 79% 29.57 in 2.5 mi NE 10.4 mph - N/A   Haze
12:43 PM 6.8 °F -7.8 °F 1.4 °F 79% 29.57 in - NE 10.4 mph - N/A   Haze
12:45 PM 6.8 °F -11.3 °F 1.4 °F 79% 29.57 in 3.7 mi East 16.1 mph 21.9 mph N/A   Haze
12:48 PM 6.8 °F -9.3 °F 1.4 °F 79% 29.57 in 3.7 mi East 12.7 mph 21.9 mph N/A   Haze
12:51 PM 6.8 °F -10.7 °F 1.4 °F 79% 29.57 in 3.7 mi ESE 15.0 mph 23.0 mph N/A   Haze
12:58 PM 7.5 °F -6.9 °F 1.2 °F 75% 29.55 in 3.7 mi ESE 10.4 mph 26.5 mph N/A   Haze
1:00 PM 8.6 °F -5.5 °F 1.4 °F 73% 29.58 in 3.7 mi East 10.4 mph 26.5 mph N/A   Haze
1:14 PM 6.8 °F -13.8 °F -0.4 °F 72% 29.59 in 2.5 mi ESE 21.9 mph 33.4 mph N/A   Haze
1:16 PM 6.8 °F -13.4 °F -0.4 °F 72% 29.59 in - East 20.7 mph 33.4 mph N/A   Haze
1:18 PM 6.8 °F -14.7 °F -0.4 °F 72% 29.59 in 1.7 mi East 24.2 mph 33.4 mph N/A   Haze
1:20 PM 6.8 °F -15.5 °F -0.4 °F 72% 29.58 in 1.2 mi ESE 26.5 mph 33.4 mph N/A   Haze
1:21 PM 6.8 °F -15.9 °F -0.4 °F 72% 29.58 in 1.0 mi ESE 27.6 mph 33.4 mph N/A   Haze
1:22 PM 6.8 °F -16.2 °F -0.4 °F 72% 29.58 in 0.7 mi ESE 28.8 mph 33.4 mph N/A   Haze
1:24 PM 6.8 °F -17.3 °F -0.4 °F 72% 29.58 in 0.7 mi ESE 32.2 mph - N/A   Haze
1:25 PM 5.0 °F -19.4 °F -0.4 °F 78% 29.58 in 0.5 mi ESE 31.1 mph - N/A   Haze
1:26 PM 5.0 °F -19.4 °F -0.4 °F 78% 29.58 in 0.5 mi ESE 31.1 mph - N/A Snow Snow
1:29 PM 5.0 °F -18.3 °F -0.4 °F 78% 29.58 in 0.2 mi ESE 27.6 mph 33.4 mph N/A Snow Heavy Snow
1:41 PM 5.0 °F -21.3 °F -0.4 °F 78% 29.58 in 0.2 mi SE 38.0 mph - N/A Snow Heavy Snow
1:47 PM 5.0 °F -21.9 °F -0.4 °F 78% 29.57 in - SE 40.3 mph - N/A Snow Heavy Snow
1:50 PM 5.0 °F -21.9 °F -0.4 °F 78% 29.58 in 0.2 mi SE 40.3 mph - N/A Snow Heavy Snow
1:58 PM 4.8 °F -21.8 °F 0.5 °F 82% 29.57 in 0.2 mi SE 39.1 mph - 0.00 in Snow Heavy Snow
2:00 PM 5.0 °F -21.6 °F -0.4 °F 78% 29.59 in 0.2 mi SE 39.1 mph - N/A Snow Heavy Snow
2:01 PM 5.0 °F -21.6 °F -0.4 °F 78% 29.59 in 0.5 mi SE 39.1 mph - N/A Snow Snow
2:02 PM 5.0 °F -21.9 °F -0.4 °F 78% 29.59 in 0.5 mi SE 40.3 mph - N/A   Haze
2:10 PM 5.0 °F -21.9 °F -0.4 °F 78% 29.60 in 0.7 mi SE 40.3 mph - N/A   Haze
2:16 PM 5.0 °F -22.1 °F -0.4 °F 78% 29.60 in 1.0 mi SE 41.4 mph - N/A   Haze
2:24 PM 5.0 °F -20.4 °F -0.4 °F 78% 29.62 in 1.2 mi SE 34.5 mph - N/A   Haze
2:25 PM 5.0 °F -20.4 °F -0.4 °F 78% 29.62 in 1.2 mi SE 34.5 mph - N/A   Haze
2:26 PM 5.0 °F -20.4 °F -0.4 °F 78% 29.62 in 1.2 mi SE 34.5 mph - N/A   Haze
2:27 PM 5.0 °F -20.7 °F -0.4 °F 78% 29.62 in 1.5 mi SE 35.7 mph - N/A   Haze
2:36 PM 5.0 °F -18.7 °F -0.4 °F 78% 29.65 in 1.5 mi ESE 28.8 mph 42.6 mph N/A   Haze
2:43 PM 5.0 °F -18.3 °F -0.4 °F 78% 29.66 in 1.0 mi ESE 27.6 mph - N/A   Haze
2:51 PM 3.2 °F -18.1 °F -0.4 °F 85% 29.67 in 1.2 mi ESE 20.7 mph - N/A   Haze
2:52 PM 3.2 °F -19.0 °F -0.4 °F 85% 29.67 in 1.2 mi SE 23.0 mph - N/A   Haze
2:53 PM 3.2 °F -19.5 °F -0.4 °F 85% 29.67 in 1.2 mi SE 24.2 mph - N/A   Haze
2:54 PM 3.2 °F -19.0 °F -0.4 °F 85% 29.67 in 1.5 mi SE 23.0 mph - N/A   Haze
2:58 PM 3.7 °F -18.3 °F -1.1 °F 80% 29.66 in 1.7 mi SE 23.0 mph - 0.00 in   Haze
2:59 PM 3.2 °F -19.5 °F -0.4 °F 85% 29.68 in - SE 24.2 mph - N/A   Haze
3:04 PM 3.2 °F -21.1 °F -0.4 °F 85% 29.67 in 1.7 mi SE 28.8 mph - N/A   Haze
3:09 PM 3.2 °F -22.2 °F -0.4 °F 85% 29.67 in 1.0 mi SE 32.2 mph - N/A   Haze
3:12 PM 3.2 °F -21.8 °F -0.4 °F 85% 29.67 in 0.7 mi SE 31.1 mph - N/A   Haze
3:15 PM 3.2 °F -21.1 °F -0.4 °F 85% 29.68 in 1.0 mi SE 28.8 mph - N/A   Haze
3:18 PM 3.2 °F -19.9 °F -0.4 °F 85% 29.68 in 1.2 mi SE 25.3 mph - N/A   Haze
3:19 PM 3.2 °F -19.9 °F -0.4 °F 85% 29.69 in 1.2 mi SE 25.3 mph - N/A   Haze
3:20 PM 3.2 °F -19.5 °F -2.2 °F 78% 29.69 in 1.5 mi SE 24.2 mph - N/A   Haze
3:21 PM 3.2 °F -19.9 °F -2.2 °F 78% 29.69 in 1.7 mi SSE 25.3 mph - N/A   Haze
3:22 PM 3.2 °F -19.9 °F -2.2 °F 78% 29.69 in - SSE 25.3 mph - N/A   Haze
3:35 PM 3.2 °F -22.2 °F -2.2 °F 78% 29.68 in 2.5 mi SE 32.2 mph - N/A   Haze
3:42 PM 3.2 °F -22.9 °F -2.2 °F 78% 29.68 in - SE 34.5 mph - N/A   Haze
3:46 PM 3.2 °F -23.5 °F -2.2 °F 78% 29.67 in 2.5 mi SE 36.8 mph 41.4 mph N/A   Haze
3:49 PM 3.2 °F -23.5 °F -2.2 °F 78% 29.68 in - SE 36.8 mph - N/A   Haze
3:54 PM 3.2 °F -24.1 °F -2.2 °F 78% 29.67 in 1.7 mi SE 39.1 mph - N/A   Haze
3:58 PM 3.2 °F -23.8 °F -2.6 °F 77% 29.65 in 1.2 mi SE 38.0 mph - N/A   Haze
4:02 PM 3.2 °F -24.1 °F -2.2 °F 78% 29.68 in 1.0 mi SE 39.1 mph - N/A   Haze
4:08 PM 3.2 °F -23.8 °F -2.2 °F 78% 29.68 in 1.2 mi SE 38.0 mph 43.7 mph N/A   Haze
4:09 PM 3.2 °F -24.1 °F -2.2 °F 78% 29.68 in 1.2 mi SE 39.1 mph 43.7 mph N/A   Haze
4:10 PM 3.2 °F -23.8 °F -2.2 °F 78% 29.68 in 1.2 mi SSE 38.0 mph 43.7 mph N/A   Haze
4:11 PM 3.2 °F -23.5 °F -2.2 °F 78% 29.69 in 1.2 mi SSE 36.8 mph 43.7 mph N/A   Haze
4:21 PM 3.2 °F -22.9 °F -4.0 °F 72% 29.69 in - SSE 34.5 mph - N/A   Haze
4:23 PM 3.2 °F -22.5 °F -4.0 °F 72% 29.69 in 2.5 mi SSE 33.4 mph - N/A   Haze
4:25 PM 3.2 °F -22.5 °F -4.0 °F 72% 29.69 in - SSE 33.4 mph - N/A   Haze
4:32 PM 1.4 °F -25.3 °F -4.0 °F 78% 29.70 in 2.5 mi SSE 34.5 mph - N/A   Haze
4:38 PM 1.4 °F -25.0 °F -4.0 °F 78% 29.70 in - SSE 33.4 mph - N/A   Haze
4:58 PM 2.3 °F -23.8 °F -3.3 °F 77% 29.70 in 3.7 mi SE 33.4 mph - N/A   Haze
5:58 PM 2.5 °F -22.1 °F -3.6 °F 76% 29.73 in 6.2 mi SSE 28.8 mph - N/A   Scattered Clouds
6:58 PM 3.2 °F -19.5 °F -4.2 °F 71% 29.76 in 6.2 mi SSE 24.2 mph - N/A   Mostly Cloudy
7:58 PM 3.6 °F -3.8 °F -3.5 °F 73% 29.81 in 6.2 mi Variable 3.5 mph - N/A   Scattered Clouds
8:58 PM 3.7 °F -10.6 °F -4.7 °F 68% 29.83 in 6.2 mi East 9.2 mph - N/A   Mostly Cloudy
9:58 PM 5.0 °F -13.0 °F -5.4 °F 62% 29.82 in 6.2 mi SE 15.0 mph - N/A   Clear
10:37 PM 5.0 °F -20.1 °F -5.8 °F 61% 29.83 in 6.2 mi ENE 33.4 mph 49.5 mph N/A   Scattered Clouds
10:43 PM 5.0 °F -20.1 °F -5.8 °F 61% 29.83 in 6.2 mi NE 33.4 mph 49.5 mph N/A   Mostly Cloudy
10:57 PM 5.0 °F -15.2 °F -5.8 °F 61% 29.84 in 6.2 mi East 19.6 mph 31.1 mph N/A   Mostly Cloudy
10:58 PM 5.9 °F -14.1 °F -6.0 °F 58% 29.81 in 6.2 mi ESE 19.6 mph 28.8 mph 0.01 in   Mostly Cloudy
11:07 PM 5.0 °F -18.3 °F -5.8 °F 61% 29.82 in 6.2 mi ENE 27.6 mph 42.6 mph N/A   Mostly Cloudy
11:11 PM 5.0 °F -14.7 °F -5.8 °F 61% 29.84 in 6.2 mi East 18.4 mph 42.6 mph N/A   Mostly Cloudy
11:18 PM 5.0 °F -18.7 °F -5.8 °F 61% 29.83 in 6.2 mi ENE 28.8 mph 35.7 mph N/A   Scattered Clouds
11:23 PM 6.8 °F -13.8 °F -5.8 °F 56% 29.84 in 6.2 mi East 21.9 mph 40.3 mph N/A   Scattered Clouds
11:26 PM 6.8 °F -14.3 °F -5.8 °F 56% 29.84 in 6.2 mi ENE 23.0 mph 40.3 mph N/A   Scattered Clouds
11:29 PM 6.8 °F -13.8 °F -5.8 °F 56% 29.84 in 6.2 mi East 21.9 mph 36.8 mph N/A   Scattered Clouds
11:43 PM 6.8 °F -15.1 °F -5.8 °F 56% 29.83 in 5.0 mi ESE 25.3 mph 39.1 mph N/A   Haze
11:52 PM 6.8 °F -17.9 °F -7.6 °F 52% 29.83 in 6.2 mi SSE 34.5 mph 41.4 mph N/A   Clear
11:54 PM 6.8 °F -14.3 °F -7.6 °F 52% 29.84 in 6.2 mi East 23.0 mph 41.4 mph N/A   Clear
11:58 PM 6.1 °F -16.1 °F -6.9 °F 55% 29.81 in 6.2 mi East 25.3 mph 41.4 mph N/A   Clear